Погода в Бабынино

Россия / Калужская область     54°23′28″N   35°44′22″E
темп.,
°C
ветер,
м/с
пор.,
м/с
влажн.,
%
обл.,
%
осадки,
мм/ч
давл.,
гПа
погр.,
м
4 марта, чт
чт400:00−1з6148899 0.0 1012569
03:000зюз71589100 0.0 1010572
06:00−2зюз6148973 0.0 1007416
09:00−2зюз6138983 0.0 1005570
12:00−1зюз71189100 0.1 1003571
15:000зюз71093100 0.1 1002715
18:000з61194100 0.2 1001581
21:00−3с2493100 1.1 1002142
5 марта, пт
пт500:00−4зсз3595100 0.0 1004125
03:00−7сз349172 0.0 100668
06:00−8зсз33920 0.0 100847
09:00−7зсз35920 0.0 1009185
12:00−3сз358579 0.0 1010651
15:00−2зсз347887 0.1 1012843
18:00−5зсз22837 0.0 101221
21:00−8сз01849 0.0 101421
6 марта, сб
сб600:00−8ююз228595 0.0 101422
03:00−8ююз228894 0.0 101523
06:00−8ююз2294100 0.1 101534
09:00−7юз2395100 0.3 1016143
12:00−4ссз3488100 0.1 1017575
15:00−4ссз5785100 0.4 1017830
18:00−7сз488386 0.2 1017235
21:00−10зюз468643 0.2 1018119
7 марта, вс
вс700:00−9юз6128721 0.0 1016280
03:00−7юз7158255 0.0 1012666
06:00−6юз91783100 0.0 1008897
09:00−5юз111989100 0.1 10031117
12:00−2зюз122090100 0.6 10001302
15:00−4сз81779100 2.4 10001773
18:00−7з477066 0.1 1002139
21:00−9зюз5127933 0.1 1002256
8 марта, пн
пн800:00−7зюз614860 0.0 1000415
03:00−7зюз8168412 0.0 999732
06:00−8сз7147789 0.4 10011068
09:00−10сз7128368 0.4 1005773
12:00−7зсз697546 0.0 10081009
15:00−6зсз687125 0.0 10091185
18:00−8сз378464 0.1 1010265
21:00−10сз249582 0.1 1013123